Regional Weather Roundup
Issued by NWS Glasgow, MT

Home | Current Version | Previous Version | Text Only | Print | Product List | Glossary On
Versions: 1 2 3 4 5 6 7 8 9 10 11 12 13 14 15 16 17 18 19 20 21 22 23 24 25 26 27 28 29 30 31 32 33 34 35 36 37 38 39 40 41 42 43 44 45 46 47 48 49 50
000
ASUS45 KGGW 260815
RWRGGW
HOURLY REGIONAL WEATHER ROUNDUP FOR NORTHEAST MONTANA
NATIONAL WEATHER SERVICE GLASGOW MONTANA
200 AM MDT SUN MAR 26 2017

NOTE: "FAIR" INDICATES FEW OR NO CLOUDS BELOW 12,000 FEET WITH NO
SIGNIFICANT WEATHER AND/OR OBSTRUCTIONS TO VISISBILITY.

NORTHEAST MONTANA


CITY           SKY/WX    TMP DP  RH WIND       PRES   REMARKS
GLASGOW        CLOUDY    41  29  62 E7        29.87F
PLENTYWOOD       N/A     42  32  67 S2          N/A
WOLF POINT     MOCLDY    38  32  79 E5        29.90R
JORDAN           N/A     38  33  82 CALM      29.88F
WINNETT          N/A     31  28  89 S2          N/A
SIDNEY         CLOUDY    40  31  70 CALM      29.90R
GLENDIVE       CLOUDY    43  32  65 W6        29.91S
MALTA            N/A     35  28  75 SW3         N/A
SCOBEY           N/A     34  20  57 CALM      29.88R

FORT PECK REPORTS


CITY           SKY/WX    TMP DP  RH WIND       PRES   REMARKS
FORT PECK        N/A     45  26  47 SE7         N/A

SOUTHEAST MONTANA


CITY           SKY/WX    TMP DP  RH WIND       PRES   REMARKS
BILLINGS       PTCLDY    42  33  70 W9        29.92R
MILES CITY     MOCLDY    46  36  68 S7        29.91S
BAKER          LGT RAIN  42  39  89 S5        29.93S
LIVINGSTON     CLOUDY    31  27  85 NW9       29.94R

CENTRAL MONTANA


CITY           SKY/WX    TMP DP  RH WIND       PRES   REMARKS
HAVRE          CLOUDY    41  28  60 SW9       29.92R
LEWISTOWN      CLEAR     31  20  63 S6        29.93S
GREAT FALLS    PTCLDY    31  21  66 W10       29.93S
CUT BANK       CLEAR     35  17  47 W15       29.88F
HELENA         CLOUDY    41  28  60 SW7       29.97S
BUTTE          MOCLDY    31  25  78 N5        29.99R
BOZEMAN        MOCLDY    34  31  88 SE7       29.96R

WESTERN MONTANA


CITY           SKY/WX    TMP DP  RH WIND       PRES   REMARKS
MISSOULA       MOCLDY    34  30  85 CALM      30.03S
KALISPELL      NOT AVBL

NORTH DAKOTA


CITY           SKY/WX    TMP DP  RH WIND       PRES   REMARKS
WILLISTON      PTCLDY    44  34  67 NE6       29.90S
DICKINSON      CLOUDY    46  30  53 NE7       29.89R
MINOT          CLOUDY    41  35  79 SW3       29.90R
BISMARCK       CLOUDY    41  35  79 S7        29.93S

SOUTHERN SASKATCHEWAN


CITY           SKY/WX    TMP DP  RH WIND       PRES   REMARKS
REGINA         CLOUDY    36  34  93 SE7       29.87R
ESTEVAN        PTCLDY    34  34 100 S8        29.89S
SWIFT CURRENT  CLEAR     34  25  69 SW12      29.82S




USA.gov is the U.S. government's official web portal to all federal, state and local government web resources and services.